This is the latest recevied weather packets stored in our database for station/object S51FO-6. If no packets are shown the sender has not sent any weather packets the latest 10 day(s).
| Time | Temp. | Humidity | Pressure | Rain* | Wind** | Luminosity | Snow |
|---|---|---|---|---|---|---|---|
| 1777616984 | 4.44° C | 31% | - | 0 mm | - | - | - |
| 1777616384 | 3.89° C | 33% | - | 0 mm | - | - | - |
| 1777615184 | 2.78° C | 35% | - | 0 mm | - | - | - |
| 1777614584 | 2.78° C | 36% | - | 0 mm | - | - | - |
| 1777613993 | 2.22° C | 36% | - | 0 mm | - | - | - |
| 1777613388 | 2.22° C | 37% | - | 0 mm | - | - | - |
| 1777612786 | 1.67° C | 38% | - | 0 mm | - | - | - |
| 1777612190 | 1.67° C | 38% | - | 0 mm | - | - | - |
| 1777610389 | 1.67° C | 39% | - | 0 mm | - | - | - |
| 1777609804 | 1.11° C | 39% | - | 0 mm | - | - | - |
| 1777609188 | 1.11° C | 39% | - | 0 mm | - | - | - |
| 1777608593 | 1.11° C | 38% | - | 0 mm | - | - | - |
| 1777607987 | 1.11° C | 39% | - | 0 mm | - | - | - |
| 1777606786 | 1.11° C | 42% | - | 0 mm | - | - | - |
| 1777606188 | 1.11° C | 38% | - | 0 mm | - | - | - |
| 1777605586 | 1.11° C | 39% | - | 0 mm | - | - | - |
| 1777604989 | 1.11° C | 39% | - | 0 mm | - | - | - |
| 1777604386 | 1.67° C | 38% | - | 0 mm | - | - | - |
| 1777603790 | 1.67° C | 39% | - | 0 mm | - | - | - |
| 1777603188 | 1.11° C | 41% | - | 0 mm | - | - | - |
| 1777602592 | 1.67° C | 39% | - | 0 mm | - | - | - |
| 1777601393 | 1.11° C | 40% | - | 0 mm | - | - | - |
| 1777584588 | 1.67° C | 36% | - | 0 mm | - | - | - |
| 1777580386 | 2.22° C | 36% | - | 0 mm | - | - | - |
| 1777573800 | 2.78° C | 43% | - | 0 mm | - | - | - |
* Rain latest hour (hover to see other rain measurements)
** Current wind speed in m/s (hover to see current wind gust speed)